period_start,C,m1,H,J0,J1,J2,J3,J4,J5,JA,JB,JC,JD,JJ,JK,JN,#
2014-09-14 00:02:55,-0.00,0.36,0.00,25.49,29.70,32.01,9.48,40.08,1015.09,2027.06,3368.90,3195.00,3461.03,500.02,491.93,28.52,0000 0000 0000 0000 000000
2014-09-14 00:07:56,0.01,0.36,0.00,25.48,29.70,32.01,9.44,39.94,1015.02,2027.04,3368.21,3194.99,3461.00,499.74,491.51,28.56,0000 0000 0000 0000 000000
2014-09-14 00:12:58,0.00,0.36,0.00,25.48,29.70,32.01,9.45,39.86,1014.95,2027.03,3368.01,3194.97,3461.00,499.97,491.66,28.60,0000 0000 0000 0000 000000
2014-09-14 00:17:59,0.01,0.36,0.00,25.47,29.70,32.03,9.49,39.92,1014.96,2027.02,3367.99,3194.82,3460.95,500.28,492.11,28.64,0000 0000 0000 0000 000000
2014-09-14 00:23:00,0.00,0.36,0.00,25.47,29.70,32.03,9.44,39.86,1014.97,2027.03,3367.98,3194.74,3460.94,499.99,491.81,28.69,0000 0000 0000 0000 000000
2014-09-14 00:28:01,0.02,0.36,0.00,25.48,29.70,32.03,9.41,39.83,1014.79,2027.05,3367.79,3194.55,3460.81,499.96,491.63,28.73,0000 0000 0000 0000 000000
2014-09-14 00:33:02,0.03,0.36,0.00,25.47,29.70,32.02,9.49,39.88,1014.78,2027.05,3367.36,3194.17,3460.33,500.14,491.70,28.77,0000 0000 0000 0000 000000
2014-09-14 00:38:03,0.01,0.36,0.00,25.47,29.70,32.04,9.39,39.63,1014.73,2027.03,3367.04,3194.04,3460.06,499.76,491.56,28.81,0000 0000 0000 0000 000000
2014-09-14 00:43:05,-0.00,0.36,0.00,25.47,29.70,32.02,9.48,39.92,1014.74,2027.02,3367.00,3194.01,3460.00,499.68,491.23,28.85,0000 0000 0000 0000 000000
2014-09-14 00:48:06,0.00,0.36,0.00,25.47,29.70,32.03,9.43,39.83,1014.81,2027.04,3366.97,3194.00,3460.00,499.89,491.51,28.90,0000 0000 0000 0000 000000
2014-09-14 00:53:07,0.00,0.36,0.00,25.47,29.70,32.04,9.36,39.68,1014.94,2027.02,3366.64,3194.00,3459.99,499.36,491.19,28.94,0000 0000 0000 0000 000000
2014-09-14 00:58:07,0.01,0.36,0.00,25.47,29.70,32.03,9.46,39.70,1015.04,2027.01,3366.13,3193.97,3459.95,499.64,491.46,28.98,0000 0000 0000 0000 000000
2014-09-14 01:03:08,0.00,0.36,0.00,25.47,29.70,32.04,9.58,39.81,1015.10,2027.01,3366.01,3193.93,3459.86,500.37,492.10,29.02,0000 0000 0000 0000 000000
2014-09-14 01:08:09,0.00,0.36,0.00,25.47,29.70,32.04,9.53,39.93,1015.14,2027.02,3366.00,3193.86,3459.65,500.31,492.08,29.06,0000 0000 0000 0000 000000
2014-09-14 01:13:11,0.02,0.36,0.00,25.47,29.70,32.04,9.41,39.84,1015.15,2027.02,3365.99,3193.42,3459.16,499.63,491.60,29.11,0000 0000 0000 0000 000000
2014-09-14 01:18:12,0.02,0.36,0.00,25.48,29.70,32.03,9.46,39.97,1015.15,2027.04,3365.74,3193.13,3459.03,499.46,491.26,29.15,0000 0000 0000 0000 000000
2014-09-14 01:23:13,0.01,0.36,0.00,25.50,29.70,32.04,9.44,39.65,1015.15,2027.01,3365.28,3193.02,3459.00,500.03,492.01,29.19,0000 0000 0000 0000 000000
2014-09-14 01:28:14,0.00,0.36,0.00,25.51,29.70,32.04,9.51,39.91,1015.15,2027.04,3365.04,3193.00,3459.00,500.44,492.31,29.23,0000 0000 0000 0000 000000
2014-09-14 01:33:15,0.00,0.37,0.00,25.50,29.70,32.03,9.37,39.60,1015.15,2027.02,3364.99,3193.00,3458.96,499.70,491.50,29.27,0000 0000 0000 0000 000000
2014-09-14 01:38:16,0.02,0.37,0.00,25.49,29.70,32.05,9.51,39.49,1015.15,2027.01,3364.68,3192.96,3458.72,499.73,491.92,29.31,0000 0000 0000 0000 000000
2014-09-14 01:43:17,0.02,0.37,0.00,25.50,29.71,32.06,9.52,39.76,1015.14,2027.03,3364.11,3192.89,3458.19,500.46,492.37,29.36,0000 0000 0000 0000 000000
2014-09-14 01:48:18,0.01,0.37,0.00,25.52,29.72,32.04,9.43,39.71,1015.11,2027.01,3364.02,3192.54,3458.05,499.61,491.41,29.40,0000 0000 0000 0000 000000
2014-09-14 01:53:19,0.01,0.37,0.00,25.52,29.72,32.05,9.49,39.71,1015.07,2027.01,3364.00,3192.08,3458.00,500.03,491.90,29.44,0000 0000 0000 0000 000000
2014-09-14 01:58:20,0.00,0.37,0.00,25.52,29.72,32.05,9.43,39.67,1014.96,2027.00,3363.98,3192.02,3457.99,499.58,491.29,29.48,0000 0000 0000 0000 000000
2014-09-14 02:03:21,0.01,0.37,0.00,25.54,29.73,32.06,9.45,39.83,1014.77,2027.02,3363.80,3192.00,3457.95,499.89,491.60,29.52,0000 0000 0000 0000 000000
2014-09-14 02:08:22,0.02,0.37,0.00,25.58,29.75,32.06,9.52,39.89,1014.73,2027.01,3363.11,3192.00,3457.42,500.29,491.78,29.57,0000 0000 0000 0000 000000
2014-09-14 02:13:23,0.00,0.37,0.00,25.60,29.75,32.06,9.49,39.77,1014.70,2027.01,3363.01,3191.98,3457.20,499.98,491.37,29.61,0000 0000 0000 0000 000000
2014-09-14 02:18:25,0.00,0.37,0.00,25.60,29.75,32.07,9.50,39.62,1014.69,2027.00,3363.00,3191.91,3457.04,500.35,491.78,29.65,0000 0000 0000 0000 000000
2014-09-14 02:23:26,0.02,0.37,0.00,25.62,29.75,32.08,9.36,39.39,1014.68,2027.00,3362.93,3191.38,3457.00,499.50,490.90,29.69,0000 0000 0000 0000 000000
2014-09-14 02:28:27,0.01,0.37,0.00,25.63,29.77,32.09,9.46,39.74,1014.68,2027.00,3362.27,3191.04,3456.98,500.10,491.49,29.73,0000 0000 0000 0000 000000
2014-09-14 02:33:28,0.00,0.37,0.00,25.66,29.77,32.10,9.52,39.67,1014.66,2027.00,3362.03,3191.01,3456.87,499.93,491.30,29.78,0000 0000 0000 0000 000000
2014-09-14 02:38:29,0.00,0.37,0.00,25.67,29.77,32.10,9.50,39.65,1014.66,2027.00,3361.99,3191.00,3456.52,500.22,491.53,29.82,0000 0000 0000 0000 000000
2014-09-14 02:43:30,0.01,0.37,0.00,25.68,29.77,32.12,9.53,39.68,1014.66,2027.00,3361.95,3190.99,3456.21,500.41,491.69,29.86,0000 0000 0000 0000 000000
2014-09-14 02:48:31,0.01,0.37,0.00,25.70,29.79,32.13,9.43,39.41,1014.66,2027.00,3361.64,3190.97,3456.06,499.68,490.94,29.90,0000 0000 0000 0000 000000
2014-09-14 02:53:32,0.00,0.37,0.00,25.72,29.80,32.12,9.40,39.23,1014.66,2027.00,3361.16,3190.87,3456.00,499.57,491.09,29.94,0000 0000 0000 0000 000000
2014-09-14 02:58:33,0.02,0.37,0.00,25.72,29.80,32.14,9.48,39.27,1014.65,2027.00,3361.02,3190.44,3456.00,499.93,491.05,29.98,0000 0000 0000 0000 000000
2014-09-14 03:03:34,0.00,0.37,0.00,25.72,29.82,32.13,9.50,39.16,1014.64,2027.00,3361.01,3190.20,3456.00,500.27,491.40,30.03,0000 0000 0000 0000 000000
2014-09-14 03:08:35,0.00,0.37,0.00,25.74,29.82,32.15,9.49,39.30,1014.51,2027.00,3361.00,3190.05,3455.97,500.21,491.40,30.07,0000 0000 0000 0000 000000
2014-09-14 03:13:37,0.05,0.37,0.00,25.76,29.83,32.15,9.48,39.26,1014.33,2027.00,3360.29,3189.78,3455.60,499.62,490.63,30.11,0000 0000 0000 0000 000000
2014-09-14 03:18:38,0.02,0.38,0.00,25.75,29.85,32.17,9.44,38.98,1014.20,2026.98,3359.03,3189.10,3454.98,499.79,490.79,30.15,0000 0000 0000 0000 000000
2014-09-14 03:23:39,0.00,0.38,0.00,25.76,29.85,32.17,9.41,39.17,1014.19,2026.97,3359.00,3189.02,3454.80,499.95,490.99,30.19,0000 0000 0000 0000 000000
2014-09-14 03:28:40,0.00,0.38,0.00,25.77,29.86,32.19,9.49,39.35,1014.19,2026.97,3358.97,3189.00,3454.41,500.04,490.93,30.24,0000 0000 0000 0000 000000
2014-09-14 03:33:41,0.00,0.38,0.00,25.82,29.87,32.20,9.49,39.21,1014.18,2026.95,3358.81,3189.00,3454.11,500.28,491.34,30.28,0000 0000 0000 0000 000000
2014-09-14 03:38:42,0.00,0.38,0.00,25.84,29.87,32.21,9.40,39.34,1014.18,2026.93,3358.43,3188.98,3454.01,499.97,490.67,30.32,0000 0000 0000 0000 000000
2014-09-14 03:43:43,-0.00,0.38,0.00,25.87,29.90,32.22,9.49,39.59,1014.18,2026.83,3358.07,3188.91,3454.00,499.98,490.74,30.36,0000 0000 0000 0000 000000
2014-09-14 03:48:44,-0.00,0.38,0.00,25.88,29.90,32.23,9.39,39.63,1014.18,2026.75,3358.00,3188.54,3454.00,499.98,490.70,30.40,0000 0000 0000 0000 000000
2014-09-14 03:53:45,0.01,0.38,0.00,25.88,29.91,32.25,9.43,39.34,1014.18,2026.64,3357.99,3188.23,3453.97,499.85,490.57,30.44,0000 0000 0000 0000 000000
2014-09-14 03:58:46,-0.03,0.38,0.00,25.88,29.92,32.25,9.41,39.40,1014.19,2026.36,3357.97,3188.08,3453.82,499.92,490.51,30.49,0000 0000 0000 0000 000000
2014-09-14 04:03:47,-0.00,0.38,0.00,25.90,29.93,32.25,9.40,39.40,1014.18,2026.17,3357.91,3188.00,3453.56,499.72,490.64,30.53,0000 0000 0000 0000 000000
2014-09-14 04:08:48,0.01,0.38,0.00,25.89,29.95,32.26,9.55,39.52,1014.18,2026.05,3357.30,3188.00,3453.04,500.76,491.26,30.57,0000 0000 0000 0000 000000
2014-09-14 04:13:49,0.00,0.38,0.00,25.91,29.95,32.29,9.42,39.42,1014.18,2026.03,3357.04,3187.99,3453.01,499.95,490.70,30.61,0000 0000 0000 0000 000000
2014-09-14 04:18:50,0.00,0.38,0.00,25.95,29.97,32.29,9.47,39.30,1014.18,2026.02,3357.00,3187.81,3452.99,500.25,490.99,30.65,0000 0000 0000 0000 000000
2014-09-14 04:23:52,0.01,0.38,0.00,25.97,29.98,32.30,9.44,39.48,1014.18,2026.00,3356.99,3187.49,3452.93,500.24,490.75,30.70,0000 0000 0000 0000 000000
2014-09-14 04:28:53,-0.00,0.38,0.00,25.98,30.00,32.32,9.53,39.67,1014.18,2026.00,3356.99,3187.46,3452.91,499.78,490.24,30.74,0000 0000 0000 0000 000000
2014-09-14 04:33:54,0.02,0.38,0.00,26.00,30.00,32.33,9.45,39.44,1014.18,2026.00,3356.90,3187.06,3452.46,499.75,490.35,30.78,0000 0000 0000 0000 000000
2014-09-14 04:38:55,0.01,0.38,0.00,26.03,30.02,32.34,9.48,39.58,1014.18,2026.00,3356.55,3187.00,3452.07,500.18,490.66,30.82,0000 0000 0000 0000 000000
2014-09-14 04:43:55,0.00,0.38,0.00,26.05,30.03,32.35,9.41,39.58,1014.19,2026.00,3356.04,3187.00,3452.01,499.94,490.43,30.86,0000 0000 0000 0000 000000
2014-09-14 04:48:57,0.00,0.38,0.00,26.09,30.05,32.36,9.40,39.36,1014.19,2025.99,3356.00,3186.98,3452.00,500.09,490.47,30.90,0000 0000 0000 0000 000000
2014-09-14 04:53:57,0.00,0.38,0.00,26.09,30.06,32.38,9.45,39.54,1014.19,2025.98,3355.99,3186.92,3451.97,499.95,490.35,30.95,0000 0000 0000 0000 000000
2014-09-14 04:58:58,0.02,0.38,0.00,26.09,30.07,32.40,9.43,39.52,1014.18,2025.98,3355.85,3186.41,3451.84,500.25,490.73,30.99,0000 0000 0000 0000 000000
2014-09-14 05:04:00,0.03,0.38,0.00,26.12,30.09,32.42,9.40,39.64,1014.18,2025.95,3355.49,3186.07,3451.27,499.62,490.04,31.03,0000 0000 0000 0000 000000
2014-09-14 05:09:01,0.00,0.38,0.00,26.11,30.10,32.43,9.37,39.38,1014.18,2025.96,3355.01,3186.00,3451.00,499.80,490.18,31.07,0000 0000 0000 0000 000000
2014-09-14 05:14:02,-0.01,0.38,0.00,26.15,30.12,32.44,9.43,39.37,1014.18,2025.79,3354.98,3185.96,3450.94,499.76,489.98,31.11,0000 0000 0000 0000 000000
2014-09-14 05:19:03,-0.01,0.38,0.00,26.18,30.13,32.45,9.36,38.94,1014.18,2025.46,3354.73,3185.69,3450.51,499.84,489.91,31.16,0000 0000 0000 0000 000000
2014-09-14 05:24:04,0.00,0.38,0.00,26.19,30.15,32.47,9.38,39.07,1014.19,2025.24,3354.15,3185.14,3450.07,499.90,490.12,31.20,0000 0000 0000 0000 000000
2014-09-14 05:29:06,-0.01,0.38,0.00,26.21,30.16,32.49,9.44,39.19,1014.18,2025.09,3354.03,3185.02,3450.00,499.96,490.16,31.24,0000 0000 0000 0000 000000
2014-09-14 05:34:06,-0.00,0.38,0.00,26.24,30.17,32.49,9.42,39.25,1014.18,2025.05,3354.00,3185.00,3450.00,500.00,490.22,31.28,0000 0000 0000 0000 000000
2014-09-14 05:39:07,0.00,0.38,0.00,26.27,30.20,32.51,9.42,39.00,1014.18,2025.02,3353.96,3184.99,3449.93,499.96,490.04,31.32,0000 0000 0000 0000 000000
2014-09-14 05:44:08,0.03,0.38,0.00,26.32,30.21,32.52,9.46,39.17,1014.18,2025.00,3353.45,3184.90,3449.37,500.47,490.34,31.37,0000 0000 0000 0000 000000
2014-09-14 05:49:10,0.02,0.38,0.00,26.32,30.23,32.55,9.39,39.00,1014.18,2025.00,3353.09,3184.50,3449.05,499.70,489.57,31.41,0000 0000 0000 0000 000000
2014-09-14 05:54:11,0.01,0.38,0.00,26.35,30.25,32.55,9.38,39.22,1014.18,2025.00,3353.01,3184.08,3449.00,499.52,489.42,31.45,0000 0000 0000 0000 000000
2014-09-14 05:59:12,0.00,0.38,0.00,26.37,30.27,32.58,9.45,38.99,1014.18,2024.99,3352.97,3184.00,3448.98,500.12,490.35,31.49,0000 0000 0000 0000 000000
2014-09-14 06:04:13,0.01,0.38,0.00,26.38,30.29,32.59,9.47,39.27,1014.18,2024.98,3352.62,3184.00,3448.73,500.25,490.09,31.53,0000 0000 0000 0000 000000
2014-09-14 06:09:15,0.02,0.39,0.00,26.37,30.30,32.61,9.46,39.23,1014.18,2024.95,3352.05,3183.83,3448.11,500.28,490.33,31.57,0000 0000 0000 0000 000000
2014-09-14 06:14:16,0.02,0.39,0.00,26.39,30.32,32.63,9.40,39.11,1014.18,2024.94,3351.98,3183.25,3448.00,499.65,489.42,31.62,0000 0000 0000 0000 000000
2014-09-14 06:19:17,-0.01,0.39,0.00,26.43,30.34,32.64,9.40,38.97,1014.18,2024.78,3351.70,3183.02,3447.99,500.13,489.94,31.66,0000 0000 0000 0000 000000
2014-09-14 06:24:18,-0.03,0.39,0.00,26.45,30.36,32.67,9.33,38.91,1014.18,2024.40,3351.04,3182.97,3447.43,499.77,489.62,31.70,0000 0000 0000 0000 000000
2014-09-14 06:29:19,-0.00,0.38,0.00,26.47,30.37,32.68,9.42,39.14,1014.18,2024.11,3350.98,3182.82,3447.03,499.79,489.56,31.74,0000 0000 0000 0000 000000
2014-09-14 06:34:20,0.01,0.39,0.00,26.48,30.40,32.71,9.45,39.09,1014.18,2024.11,3350.86,3182.48,3447.00,499.95,489.76,31.78,0000 0000 0000 0000 000000
2014-09-14 06:39:21,0.02,0.39,0.00,26.49,30.41,32.72,9.43,39.02,1014.18,2024.03,3350.19,3182.06,3446.99,499.83,489.54,31.83,0000 0000 0000 0000 000000
2014-09-14 06:44:22,0.01,0.39,0.00,26.49,30.43,32.75,9.41,39.08,1014.18,2024.01,3350.00,3182.00,3446.68,500.27,490.07,31.87,0000 0000 0000 0000 000000
2014-09-14 06:49:23,0.01,0.39,0.00,26.51,30.45,32.76,9.48,39.12,1014.17,2024.00,3349.88,3181.94,3446.04,499.73,489.59,31.91,0000 0000 0000 0000 000000
2014-09-14 06:54:24,0.03,0.39,0.00,26.52,30.47,32.78,9.44,39.02,1014.16,2024.00,3349.15,3181.49,3446.00,500.00,489.76,31.95,0000 0000 0000 0000 000000
2014-09-14 06:59:25,0.02,0.39,0.00,26.54,30.49,32.79,9.41,39.08,1014.16,2024.00,3349.01,3181.11,3445.79,499.97,489.65,31.99,0000 0000 0000 0000 000000
2014-09-14 07:04:26,0.02,0.39,0.00,26.57,30.51,32.81,9.49,38.87,1014.17,2024.00,3348.53,3180.99,3445.08,500.53,489.87,32.04,0000 0000 0000 0000 000000
2014-09-14 07:09:27,0.00,0.39,0.00,26.60,30.52,32.84,9.48,39.08,1014.17,2023.99,3348.06,3180.92,3445.00,500.49,490.13,32.08,0000 0000 0000 0000 000000
2014-09-14 07:14:29,0.02,0.39,0.00,26.60,30.55,32.85,9.52,39.11,1014.17,2023.97,3347.99,3180.35,3444.96,499.82,489.80,32.12,0000 0000 0000 0000 000000
2014-09-14 07:19:30,0.01,0.39,0.00,26.60,30.57,32.88,9.42,39.03,1014.17,2023.95,3347.81,3180.01,3444.36,499.84,489.44,32.16,0000 0000 0000 0000 000000
2014-09-14 07:24:31,0.01,0.39,0.00,26.63,30.58,32.89,9.50,39.13,1014.17,2023.88,3347.11,3179.99,3444.03,500.21,489.72,32.20,0000 0000 0000 0000 000000
2014-09-14 07:29:32,-0.02,0.39,0.00,26.66,30.60,32.90,9.38,39.05,1014.17,2023.54,3346.98,3179.61,3443.98,499.66,489.03,32.24,0000 0000 0000 0000 000000
2014-09-14 07:34:33,0.02,0.39,0.00,26.66,30.62,32.92,9.50,39.21,1014.17,2023.43,3346.68,3179.17,3443.65,500.17,489.56,32.29,0000 0000 0000 0000 000000
2014-09-14 07:39:34,-0.02,0.39,0.00,26.67,30.64,32.94,9.50,38.90,1014.17,2023.11,3346.06,3179.00,3443.03,499.53,488.98,32.33,0000 0000 0000 0000 000000
2014-09-14 07:44:35,-0.00,0.39,0.00,26.69,30.66,32.97,9.46,38.93,1014.17,2023.04,3345.97,3178.98,3442.99,500.18,489.59,32.37,0000 0000 0000 0000 000000
2014-09-14 07:49:35,0.05,0.39,0.00,26.70,30.67,32.98,9.46,39.24,1014.17,2023.02,3345.40,3178.49,3442.70,500.14,489.40,32.41,0000 0000 0000 0000 000000
2014-09-14 07:54:37,0.01,0.39,0.00,26.73,30.70,33.00,9.45,38.92,1014.18,2023.00,3345.02,3178.04,3442.09,499.59,488.92,32.45,0000 0000 0000 0000 000000
2014-09-14 07:59:38,0.00,0.39,0.00,26.73,30.71,33.02,9.44,39.06,1014.18,2023.00,3344.88,3177.99,3441.99,500.40,489.82,32.49,0000 0000 0000 0000 000000
2014-09-14 08:04:39,0.01,0.40,0.00,26.73,30.72,33.03,9.38,39.02,1014.18,2023.00,3344.32,3177.97,3441.98,500.08,489.52,32.53,0000 0000 0000 0000 000000
2014-09-14 08:09:40,0.02,0.40,0.00,26.75,30.74,33.05,9.43,38.76,1014.18,2023.00,3344.02,3177.66,3441.73,499.89,489.20,32.58,0000 0000 0000 0000 000000
2014-09-14 08:14:41,0.02,0.40,0.00,26.75,30.75,33.08,9.41,39.07,1014.19,2022.99,3343.86,3177.06,3441.07,499.79,489.07,32.62,0000 0000 0000 0000 000000
2014-09-14 08:19:42,0.01,0.40,0.00,26.77,30.77,33.09,9.34,39.01,1014.18,2022.99,3343.19,3177.00,3441.00,499.93,489.05,32.66,0000 0000 0000 0000 000000
2014-09-14 08:24:44,0.00,0.40,0.00,26.78,30.78,33.11,9.44,39.21,1014.18,2022.99,3343.00,3176.98,3440.96,500.60,489.87,32.70,0000 0000 0000 0000 000000
2014-09-14 08:29:45,0.02,0.40,0.00,26.78,30.80,33.11,9.41,39.19,1014.18,2022.96,3342.88,3176.65,3440.51,499.56,488.89,32.74,0000 0000 0000 0000 000000
2014-09-14 08:34:46,0.02,0.40,0.00,26.80,30.81,33.13,9.45,38.95,1014.18,2022.92,3342.26,3176.09,3440.02,499.96,489.31,32.78,0000 0000 0000 0000 000000
2014-09-14 08:39:47,0.01,0.40,0.00,26.79,30.82,33.14,9.34,38.99,1014.18,2022.94,3342.02,3176.00,3440.00,499.41,488.64,32.83,0000 0000 0000 0000 000000
2014-09-14 08:44:48,-0.04,0.40,0.00,26.80,30.85,33.16,9.47,39.27,1014.18,2022.64,3341.88,3175.98,3439.86,500.08,489.28,32.87,0000 0000 0000 0000 000000
2014-09-14 08:49:49,0.04,0.40,0.00,26.81,30.85,33.17,9.41,38.69,1014.19,2022.52,3341.26,3175.69,3439.23,499.83,489.05,32.91,0000 0000 0000 0000 000000
2014-09-14 08:54:50,-0.02,0.40,0.00,26.83,30.87,33.19,9.37,38.92,1014.19,2022.26,3341.03,3175.17,3439.01,499.97,489.16,32.95,0000 0000 0000 0000 000000
2014-09-14 08:59:51,-0.01,0.40,0.00,26.83,30.88,33.19,9.40,38.84,1014.18,2022.08,3340.99,3175.02,3438.99,500.06,489.04,32.99,0000 0000 0000 0000 000000
2014-09-14 09:04:52,0.01,0.40,0.00,26.82,30.90,33.21,9.49,39.22,1014.18,2022.03,3340.66,3174.99,3438.74,499.98,489.12,33.03,0000 0000 0000 0000 000000
2014-09-14 09:09:53,0.02,0.40,0.00,26.85,30.91,33.23,9.38,38.83,1014.18,2022.01,3340.19,3174.91,3438.22,499.31,488.62,33.08,0000 0000 0000 0000 000000
2014-09-14 09:14:55,0.02,0.40,0.00,26.85,30.92,33.24,9.41,38.81,1014.18,2022.00,3340.00,3174.43,3438.01,499.38,488.53,33.12,0000 0000 0000 0000 000000
2014-09-14 09:19:56,0.00,0.40,0.00,26.86,30.94,33.23,9.44,39.07,1014.18,2022.00,3339.96,3174.04,3438.00,499.79,489.09,33.16,0000 0000 0000 0000 000000
2014-09-14 09:24:57,0.01,0.40,0.00,26.85,30.95,33.26,9.46,39.11,1014.18,2022.00,3339.72,3174.00,3437.94,500.13,489.05,33.20,0000 0000 0000 0000 000000
2014-09-14 09:29:58,0.02,0.40,0.00,26.86,30.95,33.27,9.41,38.79,1014.18,2022.00,3339.04,3174.00,3437.49,499.98,489.08,33.24,0000 0000 0000 0000 000000
2014-09-14 09:34:59,0.00,0.40,0.00,26.87,30.97,33.26,9.41,39.03,1014.19,2022.00,3338.99,3173.98,3437.07,499.72,488.98,33.28,0000 0000 0000 0000 000000
2014-09-14 09:40:00,0.02,0.40,0.00,26.89,30.97,33.28,9.40,39.42,1014.21,2022.00,3338.80,3173.61,3437.00,499.50,488.73,33.33,0000 0000 0000 0000 000000
2014-09-14 09:45:01,0.02,0.41,0.00,26.88,30.98,33.30,9.39,39.29,1014.23,2021.99,3338.12,3173.09,3436.97,499.62,488.84,33.37,0000 0000 0000 0000 000000
2014-09-14 09:50:02,0.00,0.41,0.00,26.88,31.00,33.31,9.41,39.26,1014.22,2021.97,3338.00,3173.00,3436.66,499.96,489.04,33.41,0000 0000 0000 0000 000000
2014-09-14 09:55:04,0.01,0.41,0.00,26.88,31.00,33.31,9.45,39.06,1014.20,2021.99,3337.95,3173.00,3436.36,499.97,489.10,33.45,0000 0000 0000 0000 000000
2014-09-14 10:00:05,-0.00,0.41,0.00,26.87,31.00,33.33,9.47,39.13,1014.21,2021.98,3337.90,3173.00,3436.32,500.47,489.58,33.49,0000 0000 0000 0000 000000
2014-09-14 10:05:06,0.01,0.41,0.00,26.85,31.01,33.33,9.44,39.14,1014.25,2021.98,3337.80,3172.99,3436.12,500.44,489.56,33.53,0000 0000 0000 0000 000000
2014-09-14 10:10:07,0.01,0.41,0.00,26.87,31.02,33.33,9.43,39.18,1014.30,2021.98,3337.16,3172.98,3436.01,500.02,489.06,33.58,0000 0000 0000 0000 000000
2014-09-14 10:15:08,0.01,0.41,0.00,26.85,31.02,33.33,9.42,38.88,1014.33,2021.98,3337.01,3172.91,3436.00,500.17,489.41,33.62,0000 0000 0000 0000 000000
2014-09-14 10:20:09,0.00,0.41,0.00,26.86,31.02,33.34,9.49,38.94,1014.31,2021.95,3337.01,3172.74,3435.99,500.64,489.62,33.66,0000 0000 0000 0000 000000
2014-09-14 10:25:10,-0.00,0.41,0.00,26.85,31.02,33.35,9.33,39.02,1014.26,2021.95,3337.00,3172.78,3435.99,499.17,488.37,33.70,0000 0000 0000 0000 000000
2014-09-14 10:30:11,0.01,0.41,0.00,26.83,31.02,33.35,9.49,39.10,1014.46,2021.95,3337.00,3172.46,3435.99,500.21,489.60,33.74,0000 0000 0000 0000 000000
2014-09-14 10:35:12,0.01,0.41,0.00,26.82,31.02,33.35,9.42,39.01,1014.58,2021.93,3337.00,3172.24,3435.97,499.86,489.23,33.78,0000 0000 0000 0000 000000
2014-09-14 10:40:14,-0.00,0.41,0.00,26.82,31.02,33.36,9.47,39.10,1014.62,2021.91,3336.99,3172.22,3435.93,499.73,489.02,33.83,0000 0000 0000 0000 000000
2014-09-14 10:45:15,0.01,0.41,0.00,26.80,31.02,33.34,9.43,39.07,1014.64,2021.92,3336.93,3172.08,3435.87,500.29,489.72,33.87,0000 0000 0000 0000 000000
2014-09-14 10:50:16,0.01,0.41,0.00,26.79,31.02,33.34,9.39,39.08,1014.59,2021.92,3336.60,3172.04,3435.68,500.04,489.47,33.91,0000 0000 0000 0000 000000
2014-09-14 10:55:17,0.01,0.41,0.00,26.80,31.02,33.35,9.37,38.78,1014.56,2021.90,3336.34,3172.01,3435.38,499.59,489.04,33.95,0000 0000 0000 0000 000000
2014-09-14 11:00:18,-0.00,0.41,0.00,26.81,31.02,33.34,9.48,38.98,1014.63,2021.86,3336.16,3172.00,3435.18,500.46,489.87,33.99,0000 0000 0000 0000 000000
2014-09-14 11:05:18,-0.00,0.41,0.00,26.79,31.02,33.36,9.45,38.84,1014.65,2021.81,3336.06,3172.00,3435.05,499.89,489.38,34.04,0000 0000 0000 0000 000000
2014-09-14 11:10:20,0.00,0.41,0.00,26.80,31.02,33.34,9.42,38.73,1014.63,2021.80,3336.00,3172.00,3435.01,500.21,489.79,34.08,0000 0000 0000 0000 000000
2014-09-14 11:15:21,-0.01,0.41,0.00,26.81,31.02,33.34,9.47,38.80,1014.63,2021.72,3336.00,3171.99,3435.00,500.34,489.91,34.12,0000 0000 0000 0000 000000
2014-09-14 11:20:22,0.01,0.41,0.00,26.78,31.02,33.34,9.45,39.03,1014.62,2021.64,3335.99,3171.98,3434.99,499.90,489.51,34.16,0000 0000 0000 0000 000000
2014-09-14 11:25:23,-0.00,0.41,0.00,26.77,31.02,33.34,9.44,39.02,1014.63,2021.68,3335.98,3171.97,3434.99,500.34,489.82,34.20,0000 0000 0000 0000 000000
2014-09-14 11:30:24,0.00,0.41,0.00,26.75,31.02,33.34,9.45,38.95,1014.65,2021.70,3335.98,3171.98,3434.98,500.22,489.88,34.24,0000 0000 0000 0000 000000
2014-09-14 11:35:25,-0.01,0.41,0.00,26.75,31.02,33.33,9.46,39.13,1014.61,2021.69,3335.94,3171.95,3434.97,500.22,489.76,34.28,0000 0000 0000 0000 000000
2014-09-14 11:40:26,0.01,0.41,0.00,26.74,31.00,33.33,9.49,39.12,1014.46,2021.57,3335.70,3171.88,3434.89,500.26,489.77,34.33,0000 0000 0000 0000 000000
2014-09-14 11:45:28,0.01,0.41,0.00,26.70,31.00,33.32,9.33,38.82,1014.37,2021.64,3335.27,3171.69,3434.72,499.33,488.87,34.37,0000 0000 0000 0000 000000
2014-09-14 11:50:29,0.02,0.41,0.00,26.72,31.00,33.33,9.48,38.87,1014.38,2021.59,3335.01,3171.33,3434.28,500.23,489.66,34.41,0000 0000 0000 0000 000000
2014-09-14 11:55:30,-0.00,0.41,0.00,26.70,31.00,33.32,9.45,38.97,1014.46,2021.61,3335.00,3171.18,3434.17,499.65,489.21,34.45,0000 0000 0000 0000 000000
2014-09-14 12:00:31,0.02,0.41,0.00,26.69,31.00,33.32,9.44,38.91,1014.49,2021.71,3335.00,3171.12,3434.11,500.09,489.64,34.49,0000 0000 0000 0000 000000
2014-09-14 12:05:32,0.01,0.41,0.00,26.65,31.00,33.30,9.41,38.49,1014.42,2021.67,3334.99,3171.06,3434.03,500.05,489.73,34.53,0000 0000 0000 0000 000000
2014-09-14 12:10:33,0.00,0.41,0.00,26.65,30.98,33.30,9.36,38.50,1014.31,2021.80,3334.93,3171.03,3434.01,500.30,489.80,34.58,0000 0000 0000 0000 000000
2014-09-14 12:15:34,0.01,0.41,0.00,26.65,30.97,33.30,9.34,38.58,1014.27,2021.81,3334.72,3171.00,3434.00,499.70,489.18,34.62,0000 0000 0000 0000 000000
2014-09-14 12:20:35,-0.01,0.41,0.00,26.63,30.97,33.28,9.45,39.00,1014.32,2021.77,3334.62,3171.00,3433.99,499.85,489.47,34.66,0000 0000 0000 0000 000000
2014-09-14 12:25:36,-0.01,0.41,0.00,26.62,30.97,33.27,9.46,39.11,1014.24,2021.56,3334.33,3171.00,3433.99,500.33,489.97,34.70,0000 0000 0000 0000 000000
2014-09-14 12:30:37,0.02,0.41,0.00,26.61,30.95,33.27,9.45,38.92,1014.20,2021.64,3334.09,3171.00,3433.99,500.13,489.70,34.74,0000 0000 0000 0000 000000
2014-09-14 12:35:37,0.02,0.41,0.00,26.59,30.95,33.26,9.43,39.04,1014.18,2021.82,3334.02,3171.00,3433.97,500.18,489.75,34.78,0000 0000 0000 0000 000000
2014-09-14 12:40:39,-0.00,0.41,0.00,26.57,30.95,33.26,9.42,39.00,1014.18,2021.81,3334.01,3171.00,3433.97,499.62,489.44,34.83,0000 0000 0000 0000 000000
2014-09-14 12:45:40,0.01,0.41,0.00,26.56,30.92,33.24,9.45,39.04,1014.18,2021.91,3334.00,3171.00,3433.97,499.94,489.56,34.87,0000 0000 0000 0000 000000
2014-09-14 12:50:41,0.00,0.41,0.00,26.54,30.92,33.24,9.43,38.81,1014.18,2021.95,3334.00,3171.00,3433.98,500.09,489.86,34.91,0000 0000 0000 0000 000000
2014-09-14 12:55:42,0.00,0.41,0.00,26.55,30.91,33.22,9.41,38.63,1014.18,2021.95,3333.96,3171.00,3433.91,499.88,489.58,34.95,0000 0000 0000 0000 000000
2014-09-14 13:00:43,-0.00,0.41,0.00,26.53,30.90,33.23,9.43,38.76,1014.18,2021.96,3333.94,3171.00,3433.88,500.43,490.03,34.99,0000 0000 0000 0000 000000